Location: Newark
(67.3000°N, 13.7167°E)
Time: 03:35:59
(UTC+00:00)

Envisat - Visible Passes

Search period start: 21 January 2020 00:00
Search period end: 31 January 2020 00:00
Orbit: 764 x 766 km, 98.1° (Epoch: 20 January)

Date Brightness Start Highest point End Pass type
(mag) Time Alt. Az. Time Alt. Az. Time Alt. Az.
21 Jan 6.3 03:38:27 10° NE 03:40:01 11° ENE 03:41:33 10° E visible
21 Jan 4.8 05:16:00 10° NNE 05:20:39 34° E 05:25:17 10° SSE visible
21 Jan 3.0 06:55:05 10° NNE 07:00:12 81° WNW 07:05:18 10° SSW visible
21 Jan 3.2 15:05:20 10° SE 15:10:14 50° NE 15:15:10 10° NNW visible
21 Jan 3.6 16:44:17 10° S 16:49:18 59° WSW 16:54:23 10° NNW visible
21 Jan 5.7 18:25:45 10° SW 18:29:25 20° W 18:33:05 10° NW visible
22 Jan 5.5 04:39:23 10° NNE 04:43:25 23° E 04:47:26 10° SE visible
22 Jan 3.4 06:18:14 10° NNE 06:23:21 70° ESE 06:28:27 10° SSW visible
22 Jan 3.0 16:07:17 10° SSE 16:12:24 87° WSW 16:17:33 10° NNW visible
22 Jan 5.0 17:47:41 10° SSW 17:52:06 29° W 17:56:33 10° NNW visible
23 Jan 6.0 04:03:03 10° NE 04:06:01 15° ENE 04:08:59 10° ESE visible
23 Jan 4.2 05:41:27 10° NNE 05:46:23 46° E 05:51:16 10° S visible
23 Jan 3.0 07:20:37 10° NNE 07:25:40 62° WNW 07:30:41 10° SW visible
23 Jan 3.0 15:30:36 10° SE 15:35:38 64° ENE 15:40:42 10° NNW visible
23 Jan 4.2 17:10:06 10° S 17:14:58 44° W 17:19:51 10° NNW visible
23 Jan 6.0 18:52:33 10° WSW 18:55:21 15° WNW 18:58:10 10° NW visible
24 Jan 5.0 05:04:44 10° NNE 05:09:15 30° E 05:13:44 10° SSE visible
24 Jan 3.0 06:43:46 10° NNE 06:48:54 89° WNW 06:54:01 10° SSW visible
24 Jan 3.3 14:54:09 10° ESE 14:58:59 45° NE 15:03:50 10° NNW visible
24 Jan 3.4 16:32:53 10° S 16:37:58 67° WSW 16:43:04 10° NNW visible
24 Jan 5.5 18:14:01 10° SW 18:17:57 22° W 18:21:54 10° NNW visible
25 Jan 5.7 04:28:11 10° NNE 04:31:58 20° E 04:35:43 10° SE visible
25 Jan 3.6 06:06:56 10° NNE 06:12:01 62° ESE 06:17:04 10° S visible
25 Jan 3.0 15:56:00 10° SSE 16:01:06 84° ENE 16:06:15 10° NNW visible
25 Jan 4.8 17:36:07 10° SSW 17:40:41 33° W 17:45:18 10° NNW visible
25 Jan 6.4 19:20:13 10° W 19:21:23 11° WNW 19:22:34 10° NW visible
26 Jan 6.2 03:52:01 10° NE 03:54:31 13° ENE 03:57:00 10° ESE visible
26 Jan 4.5 05:30:10 10° NNE 05:34:59 40° E 05:39:47 10° SSE visible
26 Jan 3.0 07:09:18 10° NNE 07:14:23 69° WNW 07:19:27 10° SW visible
26 Jan 3.1 15:19:22 10° SE 15:24:22 58° ENE 15:29:23 10° NNW visible
26 Jan 4.0 16:58:39 10° S 17:03:35 50° W 17:08:34 10° NNW visible
26 Jan 5.9 18:40:39 10° WSW 18:43:51 17° WNW 18:47:05 10° NW visible
27 Jan 5.2 04:53:29 10° NNE 04:57:49 27° E 05:02:08 10° SE visible
27 Jan 3.2 06:32:27 10° NNE 06:37:36 82° ESE 06:42:42 10° SSW visible
27 Jan 3.2 16:21:32 10° SSE 16:26:38 75° WSW 16:31:46 10° NNW visible
27 Jan 5.3 18:02:20 10° SW 18:06:29 25° W 18:10:40 10° NNW visible
28 Jan 5.9 04:17:00 10° NE 04:20:29 18° E 04:23:57 10° ESE visible
28 Jan 3.9 05:55:38 10° NNE 06:00:40 54° ESE 06:05:40 10° S visible
28 Jan 3.0 15:44:43 10° SSE 15:49:48 75° ENE 15:54:55 10° NNW visible
28 Jan 4.6 17:24:34 10° SSW 17:29:17 37° W 17:34:02 10° NNW visible
28 Jan 6.3 19:07:48 10° W 19:09:51 12° WNW 19:11:54 10° NW visible
29 Jan 6.3 03:41:07 10° NE 03:43:00 12° ENE 03:44:52 10° E visible
29 Jan 4.7 05:18:53 10° NNE 05:23:36 36° E 05:28:16 10° SSE visible
29 Jan 3.0 06:57:59 10° NNE 07:03:06 77° WNW 07:08:11 10° SSW visible
29 Jan 3.8 16:47:13 10° S 16:52:14 56° WSW 16:57:16 10° NNW visible
29 Jan 5.8 18:28:50 10° SW 18:32:23 19° W 18:35:56 10° NW visible
30 Jan 5.4 04:42:15 10° NNE 04:46:22 24° E 04:50:29 10° SE visible
30 Jan 3.3 06:21:09 10° NNE 06:26:16 73° ESE 06:31:22 10° SSW visible
30 Jan 3.1 16:10:12 10° SSE 16:15:19 84° WSW 16:20:27 10° NNW visible
30 Jan 5.2 17:50:42 10° SSW 17:55:03 28° W 17:59:26 10° NNW visible
